[[{"header":{"parameterUnit":"m.s-1","parameterCategory":1,"la1":30.2991,"la2":30.254,"lo1":-89.0895,"lo2":-89.0444,"dy":0.0017,"dx":0.0017,"nx":28,"ny":28,"refTime":"2026-01-07T09:00:00:Z","depth":0,"parameterNumber":2,"parameterNumberName":"U-component_of_WINDS"},"data":[0,0,0,0,0,0,0,0,0,0,0,0,0,0,0,0,0,0,0,0,0,0,0,0,0,0,0,0,0,0,0,0,0,0,0,0,0,0,0,0,0,0,0,0,0,0,0,0,0,0,0,0,0,0,0,0,0,0,-0.9272,-0.9272,0,-0.9285,-0.9285,-0.9285,-0.9291,-0.9291,-0.9291,-0.9291,-0.9306,-0.9306,-0.9306,0,0,0,0,0,0,0,0,0,0,0,0,0,-0.9255,-0.9256,-0.9272,-0.9272,-0.9273,-0.9285,-0.9285,-0.9285,-0.9291,-0.9291,-0.9291,-0.9291,-0.9305,-0.9306,-0.9306,0,0,0,0,0,0,0,0,0,0,0,0,0,-0.9265,-0.9256,-0.9272,-0.9277,-0.9278,-0.9285,-0.9285,-0.9285,-0.9291,-0.9291,-0.9291,-0.9291,-0.9305,-0.9306,-0.9306,-0.931,0,0,-0.9308,-0.9308,0,0,0,0,0,0,0,0,-0.9264,-0.9265,-0.9276,-0.9277,-0.9277,-0.9286,-0.9284,-0.9294,-0.9291,-0.9286,-0.9291,-0.9291,-0.9299,-0.93,-0.9303,-0.9311,-0.9311,-0.9308,-0.9309,-0.9309,-0.9309,0,0,0,0,0,0,0,-0.9264,-0.9265,-0.9277,-0.9276,-0.9277,-0.9279,-0.9281,-0.9286,-0.9293,-0.9287,-0.9287,-0.9288,-0.93,-0.9302,-0.9303,-0.9312,-0.9308,-0.9309,-0.9309,-0.9309,-0.9324,-0.9324,0,0,0,0,0,0,-0.9262,-0.9264,-0.9277,-0.9278,-0.9271,-0.928,-0.9281,-0.9284,-0.9293,-0.9294,-0.9288,-0.9289,-0.9301,-0.9303,-0.9304,-0.9309,-0.9309,-0.9309,-0.931,-0.9324,-0.9324,-0.9324,0,0,0,0,0,0,-0.9262,-0.9263,-0.9276,-0.9271,-0.9273,-0.928,-0.9283,-0.9284,-0.9286,-0.9294,-0.9295,-0.929,-0.9301,-0.9303,-0.9309,-0.931,-0.931,-0.931,-0.9324,-0.9324,-0.9324,-0.9319,0,0,0,0,0,0,-0.9261,-0.9263,-0.9264,-0.9271,-0.9273,-0.928,-0.9283,-0.9284,-0.9287,-0.9288,-0.9296,-0.9297,-0.9301,-0.9308,-0.9309,-0.931,-0.9311,-0.9324,-0.9324,-0.9324,-0.9319,-0.9319,-0.9319,0,0,0,0,0,-0.926,-0.9262,-0.9264,-0.9265,-0.9274,-0.928,-0.9282,-0.9286,-0.9287,-0.9289,-0.9294,-0.9297,-0.9309,-0.9308,-0.931,-0.9311,-0.9324,-0.9324,-0.9324,-0.932,-0.9319,-0.9319,0,0,0,0,0,0,-0.9255,-0.9263,-0.9265,-0.9269,-0.9274,-0.9281,-0.9283,-0.9286,-0.9291,-0.9291,-0.9298,-0.9299,-0.9305,-0.9309,-0.9307,-0.9316,-0.9317,-0.9317,-0.9313,-0.9313,-0.9313,-0.9311,-0.9311,0,0,0,0,0,-0.9254,-0.9258,-0.9265,-0.9268,-0.927,-0.9276,-0.9279,-0.9282,-0.9288,-0.929,-0.9295,-0.9301,-0.9307,-0.931,-0.9315,-0.932,-0.9322,-0.9322,-0.9322,-0.9322,-0.9322,-0.9326,-0.9326,-0.9325,-0.9325,-0.9325,0,0,-0.9252,-0.9257,-0.9259,-0.9267,-0.9271,-0.9275,-0.9278,-0.9282,-0.9285,-0.9291,-0.9296,-0.9301,-0.9308,-0.9313,-0.9316,-0.9317,-0.9323,-0.9322,-0.9322,-0.9322,-0.9326,-0.9326,-0.9326,-0.9325,-0.9325,-0.9325,0,0,-0.9252,-0.9256,-0.9258,-0.9263,-0.9269,-0.9273,-0.9274,-0.9281,-0.9284,-0.929,-0.9294,-0.9299,-0.9308,-0.9313,-0.9316,-0.9318,-0.9322,-0.932,-0.9319,-0.9323,-0.9323,-0.9323,-0.9324,-0.9324,-0.932,-0.932,-0.932,0,-0.9249,-0.9255,-0.926,-0.9264,-0.9267,-0.9272,-0.9276,-0.928,-0.9288,-0.929,-0.9291,-0.9303,-0.9308,-0.9315,-0.9315,-0.9318,-0.932,-0.9319,-0.9322,-0.9322,-0.9323,-0.9324,-0.9324,-0.932,-0.932,-0.932,-0.932,0,-0.9251,-0.9256,-0.9257,-0.9264,-0.9268,-0.9272,-0.9278,-0.9281,-0.9285,-0.9289,-0.9295,-0.9302,-0.9309,-0.9311,-0.9314,-0.9318,-0.9319,-0.9321,-0.9322,-0.9322,-0.9324,-0.9324,-0.932,-0.932,-0.932,-0.932,0,0,-0.9247,-0.9257,-0.9258,-0.9261,-0.9269,-0.9273,-0.9277,-0.9283,-0.9286,-0.9292,-0.9296,-0.9304,-0.9306,-0.931,-0.9315,-0.9318,-0.932,-0.9319,-0.932,-0.9319,-0.9326,-0.9324,-0.9324,-0.9322,-0.9322,-0.9322,-0.9325,0,-0.9247,-0.9255,-0.926,-0.9265,-0.9269,-0.9275,-0.9279,-0.9284,-0.9289,-0.9294,-0.9299,-0.9305,-0.9307,-0.9309,-0.9313,-0.9319,-0.9321,-0.9318,-0.9327,-0.9327,-0.9324,-0.9325,-0.9323,-0.9326,-0.9326,-0.9326,-0.9326,0,-0.9248,-0.9254,-0.9259,-0.9267,-0.9269,-0.9273,-0.9279,-0.9284,-0.9291,-0.9294,-0.9299,-0.9303,-0.9309,-0.931,-0.9319,-0.9317,-0.9321,-0.9324,-0.9324,-0.9325,-0.9326,-0.9326,-0.9327,-0.9327,-0.9327,-0.9326,-0.9326,0,-0.9245,-0.9253,-0.9258,-0.9261,-0.927,-0.9272,-0.9277,-0.9283,-0.9287,-0.9293,-0.9296,-0.9303,-0.9307,-0.9313,-0.9319,-0.9319,-0.9327,-0.9329,-0.9331,-0.9331,-0.9332,-0.9332,-0.9333,-0.9334,-0.9334,-0.9334,-0.9334,0,-0.9245,-0.9248,-0.9257,-0.9259,-0.9264,-0.927,-0.9275,-0.9279,-0.9285,-0.929,-0.9295,-0.93,-0.9308,-0.9314,-0.9319,-0.9326,-0.9327,-0.9331,-0.9332,-0.933,-0.933,-0.9332,-0.9332,-0.9334,-0.9334,-0.9334,-0.9334,0,-0.9241,-0.9247,-0.9252,-0.9261,-0.9263,-0.9266,-0.9273,-0.9277,-0.9282,-0.9288,-0.929,-0.9298,-0.9305,-0.9312,-0.9321,-0.9325,-0.9332,-0.9334,-0.9329,-0.933,-0.9332,-0.9331,-0.9335,-0.9336,-0.9336,-0.9336,-0.9336,0,-0.9241,-0.9243,-0.9252,-0.9255,-0.9259,-0.9264,-0.9268,-0.9275,-0.9279,-0.9287,-0.929,-0.9297,-0.9303,-0.9315,-0.9322,-0.933,-0.9332,-0.9332,-0.9333,-0.9331,-0.9332,-0.9332,-0.9332,-0.9332,-0.9332,-0.9332,-0.9332,0,-0.9239,-0.9242,-0.9247,-0.9253,-0.9258,-0.9263,-0.9269,-0.9271,-0.9279,-0.9284,-0.9291,-0.9295,-0.9305,-0.9313,-0.9322,-0.9327,-0.9331,-0.9332,-0.9333,-0.9331,-0.9328,-0.933,-0.9329,-0.9332,-0.9332,-0.9332,-0.9332,-0.9332,-0.9237,-0.924,-0.9247,-0.9252,-0.9257,-0.9263,-0.9267,-0.9272,-0.9278,-0.9286,-0.929,-0.9297,-0.9305,-0.9317,-0.9322,-0.9329,-0.933,-0.9331,-0.9331,-0.9331,-0.9331,-0.9327,-0.933,-0.933,-0.933,-0.933,-0.933,0,-0.9236,-0.9241,-0.9246,-0.9254,-0.9258,-0.9262,-0.9268,-0.9272,-0.9278,-0.9285,-0.9291,-0.93,-0.9307,-0.9315,-0.9324,-0.9327,-0.9329,-0.9329,-0.9329,-0.933,-0.9329,-0.9328,-0.9327,-0.9327,-0.9327,-0.9327,-0.9327,-0.9327,-0.9236,-0.9241,-0.9245,-0.9253,-0.9258,-0.9265,-0.9268,-0.9274,-0.9279,-0.9288,-0.9294,-0.9299,-0.9307,-0.9316,-0.9324,-0.9326,-0.9329,-0.9328,-0.9331,-0.933,-0.933,-0.933,-0.9329,-0.9329,-0.9329,-0.9331,-0.9331,-0.9331]},{"header":{"parameterUnit":"m.s-1","parameterCategory":1,"la1":30.2991,"la2":30.254,"lo1":-89.0895,"lo2":-89.0444,"dy":0.0017,"dx":0.0017,"nx":28,"ny":28,"refTime":"2026-01-07T09:00:00:Z","depth":0,"parameterNumber":3,"parameterNumberName":"V-component_of_WINDS"},"data":[0,0,0,0,0,0,0,0,0,0,0,0,0,0,0,0,0,0,0,0,0,0,0,0,0,0,0,0,0,0,0,0,0,0,0,0,0,0,0,0,0,0,0,0,0,0,0,0,0,0,0,0,0,0,0,0,0,0,3.9418,3.9419,0,3.9502,3.9503,3.9504,3.9499,3.9498,3.9496,3.9495,3.9581,3.9585,3.9588,0,0,0,0,0,0,0,0,0,0,0,0,0,3.9254,3.9257,3.9418,3.9419,3.942,3.9502,3.9503,3.9504,3.9499,3.9498,3.9496,3.9495,3.958,3.9584,3.9588,0,0,0,0,0,0,0,0,0,0,0,0,0,3.933,3.9258,3.9417,3.9427,3.9429,3.9501,3.9503,3.9504,3.9499,3.9498,3.9496,3.9494,3.9579,3.9584,3.9589,3.9657,0,0,3.9604,3.9607,0,0,0,0,0,0,0,0,3.9326,3.9336,3.9425,3.9427,3.9429,3.9488,3.9477,3.9555,3.95,3.9473,3.9495,3.9493,3.9552,3.9559,3.9579,3.9661,3.9665,3.9605,3.9608,3.961,3.9612,0,0,0,0,0,0,0,3.9321,3.9333,3.9451,3.9426,3.9428,3.9428,3.9437,3.9491,3.9521,3.9475,3.9475,3.9485,3.9552,3.9574,3.9581,3.9666,3.9605,3.9609,3.9613,3.9615,3.9811,3.9813,0,0,0,0,0,0,3.9313,3.9328,3.9448,3.9453,3.9372,3.9432,3.9442,3.9471,3.9521,3.9527,3.9486,3.9484,3.9566,3.9575,3.9584,3.9669,3.961,3.9615,3.9618,3.9809,3.9812,3.9814,0,0,0,0,0,0,3.931,3.9324,3.9445,3.9391,3.9406,3.9437,3.9469,3.9473,3.9495,3.9529,3.9535,3.9503,3.9565,3.9576,3.9639,3.9672,3.9617,3.9622,3.9807,3.981,3.9813,3.9839,0,0,0,0,0,0,3.9305,3.9323,3.9349,3.9392,3.9409,3.9499,3.9471,3.9476,3.9504,3.9502,3.9546,3.9552,3.9564,3.9632,3.9645,3.9678,3.9626,3.9804,3.9808,3.9812,3.9835,3.9842,3.9848,0,0,0,0,0,3.9299,3.9352,3.935,3.9364,3.9442,3.9501,3.9511,3.9524,3.9506,3.9533,3.9555,3.955,3.9666,3.9638,3.9653,3.9688,3.9802,3.9807,3.9812,3.9832,3.9841,3.9848,0,0,0,0,0,0,3.9311,3.9358,3.9356,3.9424,3.9459,3.95,3.9534,3.9533,3.9573,3.957,3.9585,3.9595,3.9659,3.9679,3.9648,3.9758,3.9732,3.9739,3.9742,3.9751,3.9758,3.9752,3.963,0,0,0,0,0,3.9322,3.9365,3.9403,3.946,3.9477,3.9503,3.9529,3.9536,3.9573,3.9587,3.9614,3.965,3.9695,3.9724,3.9766,3.9837,3.9848,3.9869,3.9876,3.9881,3.9888,3.993,3.994,3.983,3.983,3.983,0,0,3.9344,3.9375,3.9401,3.9463,3.9491,3.9537,3.9515,3.9563,3.9598,3.9594,3.9656,3.9678,3.9718,3.9787,3.9818,3.9806,3.9921,3.9887,3.9891,3.9896,3.9936,3.9947,3.9956,3.9833,3.9833,3.9832,0,0,3.9409,3.9435,3.9487,3.9515,3.9558,3.9574,3.9587,3.9629,3.9643,3.9705,3.9704,3.9745,3.9821,3.9851,3.9876,3.9954,3.9952,3.9968,4.0003,4.0044,4.0053,4.0061,4.0091,4.0101,3.9974,3.9974,3.9974,0,3.9431,3.95,3.9513,3.9563,3.9591,3.959,3.9643,3.967,3.9724,3.9744,3.9729,3.9826,3.9854,3.993,3.9949,3.9969,3.9985,3.9963,4.005,4.0058,4.0066,4.0095,4.0106,3.9976,3.9976,3.9976,3.9976,0,3.9526,3.9574,3.961,3.9664,3.9696,3.9746,3.9768,3.9799,3.9804,3.9823,3.9887,3.992,3.9971,3.9989,3.9994,4.0067,4.0058,4.0047,4.0021,4.0078,4.0106,4.0116,3.9979,3.9978,3.9978,3.9977,0,0,3.9601,3.9662,3.9675,3.9701,3.9748,3.9786,3.9837,3.9887,3.9914,3.9952,3.9997,4.0062,4.0052,4.0081,4.0089,4.0124,4.0187,4.0109,4.011,4.0124,4.0272,4.0282,4.0294,4.0185,4.0187,4.0189,4.0269,0,3.9672,3.9764,3.9778,3.9859,3.9904,3.9905,3.995,3.9985,4.0004,4.0045,4.0066,4.0113,4.0095,4.0113,4.0148,4.0172,4.0217,4.0166,4.0228,4.023,4.022,4.0308,4.0319,4.0393,4.028,4.0282,4.0283,0,3.9767,3.9809,3.9894,3.9938,3.9958,3.9998,4.0046,4.0085,4.0125,4.0137,4.0169,4.0174,4.0229,4.02,4.0276,4.0241,4.0267,4.0283,4.0286,4.0294,4.0261,4.0321,4.0417,4.0429,4.03,4.0298,4.0297,0,3.9816,3.9893,3.9955,3.9976,4.0028,4.0057,4.0079,4.0117,4.0147,4.0189,4.0209,4.0256,4.0283,4.032,4.0338,4.0315,4.0414,4.0386,4.0427,4.0426,4.0449,4.0447,4.0553,4.0462,4.0462,4.0462,4.0462,0,3.9895,3.9948,3.9978,4.0016,4.0076,4.0092,4.0151,4.0173,4.0207,4.0251,4.0253,4.0294,4.0314,4.0358,4.0372,4.0435,4.0446,4.0458,4.0462,4.0459,4.0458,4.0478,4.0474,4.0465,4.0464,4.0464,4.0463,0,3.996,3.9982,4.005,4.0094,4.0106,4.0149,4.0186,4.0224,4.0243,4.0298,4.0312,4.0342,4.0394,4.0415,4.0479,4.0488,4.0561,4.056,4.0548,4.055,4.059,4.0587,4.0714,4.0732,4.0627,4.0628,4.0629,0,4.001,4.0051,4.01,4.0129,4.0153,4.02,4.0232,4.0249,4.0281,4.0331,4.0363,4.0415,4.0458,4.0542,4.0569,4.0619,4.062,4.0661,4.0627,4.0624,4.0623,4.0621,4.0627,4.0667,4.0668,4.0669,4.067,0,4.0097,4.0107,4.0151,4.02,4.0237,4.0276,4.0315,4.0339,4.0362,4.0398,4.0452,4.0485,4.0551,4.0604,4.0655,4.0679,4.068,4.068,4.0693,4.0691,4.0684,4.0691,4.0567,4.0677,4.0677,4.0676,4.0676,4.0675,4.0158,4.0196,4.0237,4.0287,4.0317,4.0354,4.0392,4.0416,4.0461,4.0517,4.0524,4.0582,4.0623,4.0692,4.0718,4.0764,4.0754,4.0771,4.0776,4.0781,4.0785,4.0675,4.0773,4.0773,4.0773,4.0773,4.0773,0,4.0248,4.0274,4.032,4.0374,4.0414,4.041,4.0453,4.0487,4.0538,4.0576,4.0619,4.0682,4.0733,4.0765,4.0817,4.0848,4.085,4.0862,4.086,4.0867,4.079,4.0775,4.086,4.086,4.086,4.086,4.086,4.086,4.0299,4.0363,4.0378,4.0458,4.0484,4.0541,4.0566,4.06,4.0631,4.0701,4.0744,4.0765,4.0801,4.0856,4.0903,4.0912,4.0932,4.0945,4.0952,4.0881,4.0872,4.0863,4.0849,4.0948,4.0948,4.1026,4.1026,4.1027]}]]